YD2APR-13 Weather Reports


time (UTC)temp
C
wind
direction
speed
KPH
gust
KPH
rain 1hr
cm
rain 24hr
cm
rain mn
cm
humidity
%
barometer
mb
20260504204658 22 0.0 0.0 0.00 0.00 0.00 91 1014.5
20260504203658 22 0.0 0.0 0.00 0.00 0.00 91 1014.5
20260504202659 22 0.0 0.0 0.00 0.00 0.00 91 1014.5
20260504201658 22 0.0 0.0 0.00 0.00 0.00 91 1014.5
20260504200658 22 0.0 0.0 0.00 0.00 0.00 91 1014.6
20260504195658 23 0.0 0.0 0.00 0.00 0.00 89 1014.5
20260504194658 23 0.0 0.0 0.00 0.00 0.00 89 1014.5
20260504193658 23 0.0 0.0 0.00 0.00 0.00 89 1014.7
20260504192659 23 0.0 0.0 0.00 0.00 0.00 89 1014.8
20260504191659 23 0.0 0.0 0.00 0.00 0.00 89 1014.9
20260504190658 23 0.0 0.0 0.00 0.00 0.00 89 1014.9
20260504185658 23 0.0 0.0 0.00 0.00 0.00 89 1015.0
20260504184658 23 0.0 0.0 0.00 0.00 0.00 90 1014.9
20260504183658 23 0.0 0.0 0.00 0.00 0.00 90 1015.1
20260504182658 23 0.0 0.0 0.00 0.00 0.00 89 1015.2
20260504181658 23 0.0 0.0 0.00 0.00 0.00 88 1015.3
20260504180658 23 0.0 0.0 0.00 0.00 0.00 88 1015.4
20260504175658 23 0.0 0.0 0.00 0.00 0.00 88 1015.6
20260504174658 23 0.0 0.0 0.00 0.00 0.00 88 1015.8
20260504173658 23 0.0 0.0 0.00 0.00 0.00 87 1015.8
20260504172658 23 0.0 0.0 0.00 0.00 0.00 87 1016.0
20260504171658 23 0.0 0.0 0.00 0.00 0.00 88 1016.3
20260504170658 23 0.0 0.0 0.00 0.00 0.00 88 1016.4
20260504150658 24 0.0 0.0 0.00 0.00 0.00 84 1017.1
20260504140756 25 0.0 0.0 0.00 0.00 0.00 82 1017.4
20260504140702 25 0.0 0.0 0.00 0.00 0.00 82 1017.4
20260504140112 25 0.0 0.0 0.00 0.00 0.00 80 1017.3
20260504130800 25 0.0 0.0 0.00 0.00 0.00 82 1016.7
20260504130702 25 0.0 0.0 0.00 0.00 0.00 82 1016.9
20260504110701 25 0.0 0.0 0.00 0.00 0.00 85 1015.4
20260504081821 29 0.0 0.0 0.00 0.00 0.00 68 1013.7
20260504080821 29 0.0 0.0 0.00 0.00 0.00 68 1013.8
20260504045818 31 0.0 0.0 0.00 0.00 0.00 59 1015.9
20260504044816 32 0.0 0.0 0.00 0.00 0.00 57 1016.1
20260504043817 32 0.0 0.0 0.00 0.00 0.00 59 1016.3
20260504042816 30 0.0 0.0 0.00 0.00 0.00 64 1016.3
20260504041816 30 0.0 0.0 0.00 0.00 0.00 64 1016.4
20260504040819 30 0.0 0.0 0.00 0.00 0.00 63 1016.5
20260504035816 30 0.0 0.0 0.00 0.00 0.00 63 1016.6
20260504034817 31 0.0 0.0 0.00 0.00 0.00 62 1016.7
20260504033816 31 0.0 0.0 0.00 0.00 0.00 62 1016.8
20260504032817 31 0.0 0.0 0.00 0.00 0.00 63 1016.9
20260504031816 31 0.0 0.0 0.00 0.00 0.00 63 1017.1
20260504030816 31 0.0 0.0 0.00 0.00 0.00 64 1017.2
20260504025816 31 0.0 0.0 0.00 0.00 0.00 64 1017.3
20260504024816 30 0.0 0.0 0.00 0.00 0.00 67 1017.3
20260504023816 30 0.0 0.0 0.00 0.00 0.00 65 1017.3
20260504022819 29 0.0 0.0 0.00 0.00 0.00 66 1017.2
20260504021818 30 0.0 0.0 0.00 0.00 0.00 66 1017.1
20260504020816 30 0.0 0.0 0.00 0.00 0.00 64 1017.1
20260504015816 30 0.0 0.0 0.00 0.00 0.00 64 1017.1
20260504014816 30 0.0 0.0 0.00 0.00 0.00 62 1017.1
20260504013816 30 0.0 0.0 0.00 0.00 0.00 64 1016.9
20260504012816 29 0.0 0.0 0.00 0.00 0.00 65 1016.9
20260504011816 28 0.0 0.0 0.00 0.00 0.00 67 1016.8
20260504010816 27 0.0 0.0 0.00 0.00 0.00 71 1016.8
20260504005816 27 0.0 0.0 0.00 0.00 0.00 74 1016.7
20260504004816 26 0.0 0.0 0.00 0.00 0.00 77 1016.8
20260504003816 26 0.0 0.0 0.00 0.00 0.00 77 1016.6
20260504002816 25 0.0 0.0 0.00 0.00 0.00 80 1016.4
20260504001816 25 0.0 0.0 0.00 0.00 0.00 80 1016.4
20260504000821 25 0.0 0.0 0.00 0.00 0.00 82 1016.4
20260503235102 24 0.0 0.0 0.00 0.00 0.00 83 1016.1
20260503234101 23 0.0 0.0 0.00 0.00 0.00 85 1016.0
20260503233102 23 0.0 0.0 0.00 0.00 0.00 87 1015.9
20260503232102 23 0.0 0.0 0.00 0.00 0.00 87 1015.9
20260503231101 23 0.0 0.0 0.00 0.00 0.00 89 1015.9
20260503225101 23 0.0 0.0 0.00 0.00 0.00 88 1015.8
20260503224101 23 0.0 0.0 0.00 0.00 0.00 87 1015.6
20260503223101 23 0.0 0.0 0.00 0.00 0.00 87 1015.6
20260503222101 23 0.0 0.0 0.00 0.00 0.00 87 1015.6
20260503221101 23 0.0 0.0 0.00 0.00 0.00 87 1015.4
20260503215101 23 0.0 0.0 0.00 0.00 0.00 86 1015.4
20260503214101 23 0.0 0.0 0.00 0.00 0.00 88 1015.4
20260503213102 23 0.0 0.0 0.00 0.00 0.00 89 1015.4
20260503212101 23 0.0 0.0 0.00 0.00 0.00 89 1015.5
20260503211101 23 0.0 0.0 0.00 0.00 0.00 88 1015.3
20260503205101 23 0.0 0.0 0.00 0.00 0.00 85 1015.1